Погода в Славкове у Брна

Чехия     49°09′12″N   16°52′47″E
темп.,
°C
ветер,
м/с
пор.,
м/с
влажн.,
%
обл.,
%
осадки,
мм/ч
давл.,
гПа
погр.,
м
14 апреля, ср
ср1423:00+2с61271100 0.1 10251060
02:00+2с51080100 0.1 1024620
05:00+1ссз41091100 0.4 1024575
08:00+2с5988100 0.6 1024644
11:00+4ссз6775100 0.4 10241195
14:00+6ссз8105894 1.1 10231755
17:00+6ссз7957100 0.1 10221639
20:00+3ссз51172100 0.1 1023575
15 апреля, чт
чт1523:00+2с41079100 0.0 1023407
02:00+1ссз2485100 0.1 1023125
05:00+1ссз3976100 0.0 1023329
08:00+3ссз5971100 0.0 1023776
11:00+4ссз7865100 0.0 10231286
14:00+4ссз6872100 0.2 10231066
17:00+4сз6869100 0.1 10221047
20:00+2сз4988100 0.2 1023569
16 апреля, пт
пт1623:00+1сз398688 0.0 1022375
02:000сз249199 0.0 1022209
05:00+1зсз1586100 0.1 1022648
08:00+1ссз2587100 0.1 1023598
11:00+3ссз2377100 0.1 1023833
14:00+6ссз3371100 0.1 1023890
17:00+5ссз348297 0.0 1023538
20:00+3с3693100 0.0 1023295
17 апреля, сб
сб1723:00+3ссз1395100 0.0 1023124
02:00+3с259395 0.0 1023228
05:00+4с269294 0.0 1022270
08:00+4ссв3688100 0.0 1022479
11:00+5ссв3787100 0.0 1021841
14:00+5ссв4789100 0.0 1021707
17:00+5ссв5991100 0.0 1020722
20:00+4св41195100 0.0 1020618
18 апреля, вс
вс1823:00+5ссв4119390 0.0 1020661
02:00+5ссв4109396 0.0 1019555
05:00+5ссв51194100 0.0 1019517
08:00+6ссв51193100 0.0 1019700
11:00+9св7974100 0.1 10181064
14:00+11св7867100 0.4 10171274
17:00+10ссв5871100 0.3 10171270
20:00+7с4983100 0.3 1018406